Temperature
18 18 18 18 18 18 18 18 18 18 18 18 18 18 18 18 18 18 17 17 18 18 18 18 18 18 18 18 18 18 18 18 18 18 18 18 18 18 18 18 18 18 18
18 18 18 18 18 18 18 18 18 18 18 18 18 18 17 17 17 17 17 17 17 17 17 17 17 17 17 18 18 18 18 18 18 18 18 18 18 18 18 18 18 18 18
17 17 18 17 17 17 17 17 17 17 17 17 17 17 17 17 17 17 17 17 17 17 17 17 17 17 17 17 17 17 18 18 18 18 17 17 18 18 18 18 18 18 18
17 17 17 17 17 17 17 17 17 17 17 17 17 17 17 17 17 16 16 16 16 16 17 17 17 17 17 17 17 17 17 18 18 17 17 17 17 18 18 18 18 18 18
17 17 17 17 17 17 17 17 17 17 17 17 16 16 16 16 16 16 16 16 16 16 16 16 16 17 17 17 17 17 17 17 18 17 17 17 17 18 18 18 18 18 18
17 17 17 17 17 17 17 17 17 17 17 16 16 16 16 16 16 16 16 16 16 16 16 16 16 16 17 17 17 17 17 17 17 17 17 17 17 18 18 18 18 18 18
17 17 17 17 17 17 17 17 17 17 17 16 16 16 16 16 16 16 16 16 16 16 16 16 16 16 17 17 17 17 17 17 17 17 17 17 17 17 18 18 18 18 18
18 18 18 17 17 17 17 17 17 17 17 16 17 16 16 16 16 16 16 16 16 16 16 16 16 16 17 17 17 17 17 17 17 17 17 17 17 17 17 18 18 18 18
18 18 17 17 17 17 17 17 17 16 16 16 17 16 16 16 16 16 16 16 16 16 16 16 16 16 17 17 17 17 17 17 17 17 17 17 17 17 17 17 17 18 18
18 18 18 17 17 17 17 17 17 16 16 16 16 16 16 16 16 16 16 16 16 16 16 16 16 16 17 17 17 17 17 17 17 17 17 17 17 17 17 17 17 17 18
18 18 18 18 18 17 17 17 17 17 16 16 17 16 16 16 16 16 16 16 16 16 16 16 16 16 16 17 17 17 17 17 17 17 17 17 17 17 17 17 17 17 17
19 19 19 18 18 18 18 17 17 17 17 17 17 17 17 16 16 16 16 16 16 16 16 16 16 16 17 17 17 17 17 17 17 17 17 17 17 17 17 17 17 17 17
19 19 19 19 18 18 18 17 17 17 17 17 17 17 17 17 17 16 16 16 16 16 16 16 16 16 17 17 17 17 17 17 17 17 17 17 17 17 17 17 17 17 17
19 19 19 19 19 18 18 17 17 17 17 17 17 17 16 16 16 16 16 16 16 16 16 16 16 16 16 17 17 17 17 17 17 17 17 16 16 17 17 17 17 17 17
19 19 19 19 18 18 18 18 17 17 17 17 17 17 17 16 16 16 16 16 16 16 16 16 16 16 16 16 16 17 17 17 16 16 16 16 16 16 16 17 17 17 17
19 19 18 18 18 18 18 18 17 17 17 17 17 17 17 16 16 16 16 16 16 16 16 16 16 16 16 16 16 16 16 16 16 16 16 16 16 16 16 16 17 17 17
19 19 18 18 18 18 18 17 17 17 17 16 16 17 17 16 16 16 16 16 16 16 16 16 16 16 16 16 16 16 16 16 16 16 16 16 16 16 16 16 16 16 17
19 19 18 18 18 17 17 17 17 17 16 16 16 16 16 16 16 16 16 16 16 16 16 16 16 16 16 16 16 16 16 16 16 16 16 16 16 16 16 16 16 16 16
19 19 18 18 18 17 17 17 17 17 16 16 16 16 16 16 16 16 16 15 15 15 15 15 16 16 16 16 16 16 16 16 16 16 16 16 16 16 16 16 16 16 16
19 19 18 18 18 17 17 17 17 16 16 16 16 16 16 16 16 15 15 15 15 15 15 15 15 15 16 16 16 16 16 16 16 16 16 16 16 16 16 16 16 16 16
19 19 18 18 18 17 17 17 17 16 16 16 16 16 16 16 15 15 15 15 15 15 15 15 15 15 15 16 16 16 16 16 16 16 16 16 16 16 16 16 16 16 16
19 19 18 18 18 17 17 17 17 16 16 16 16 16 16 15 15 15 15 15 15 15 15 15 15 15 15 15 16 16 16 16 16 16 16 16 16 16 15 16 16 16 16
19 19 18 18 18 17 17 17 17 16 16 16 16 15 15 15 15 15 15 15 15 15 15 15 15 15 15 15 15 15 15 15 15 16 16 15 15 15 15 15 15 15 15
19 18 18 18 18 17 17 17 17 16 16 16 15 15 15 15 15 15 15 15 15 15 15 14 15 14 15 15 15 15 15 15 15 15 15 15 15 15 15 15 15 15 15
19 18 18 18 18 17 17 17 17 16 16 16 15 15 15 15 15 15 15 15 15 14 14 14 14 14 14 14 14 14 15 15 15 15 14 15 15 15 15 15 15 15 15
18 18 18 18 17 17 17 16 16 16 16 16 15 15 15 15 15 15 15 15 14 14 14 14 14 14 14 14 14 14 14 14 14 14 14 14 14 14 15 15 14 14 14
Wind_Speed
8 10 12 13 14 14 14 15 15 14 14 14 14 14 13 13 13 12 12 12 12 12 11 11 10 10 10 10 10 9 9 8 7 6 6 6 7 8 8 9 9 8 8
11 13 14 15 15 15 15 15 15 14 14 14 14 13 13 12 12 11 11 11 11 11 11 11 10 10 10 9 9 8 8 7 6 6 5 4 5 7 8 8 9 8 8
13 13 14 15 15 15 15 15 14 14 14 14 13 13 12 12 11 11 11 10 10 10 10 10 10 10 9 9 8 7 7 7 7 7 5 2 4 7 8 8 8 8 7
14 14 15 15 15 15 15 15 14 14 13 13 13 12 12 11 11 10 10 10 9 9 9 9 9 9 8 8 7 7 7 8 8 8 5 6 7 9 9 8 8 7 7
15 15 15 16 15 15 15 15 14 14 13 13 12 11 11 10 10 10 9 9 9 9 9 9 8 8 8 8 7 7 7 8 9 6 5 6 8 9 9 9 9 7 7
14 15 15 15 15 15 15 14 13 13 12 12 11 10 10 9 9 9 9 9 9 9 8 8 8 8 7 7 7 7 8 9 8 4 4 6 8 9 9 9 8 8 7
14 15 15 15 15 14 14 13 12 12 11 11 10 9 8 8 9 9 9 9 9 8 8 8 8 8 7 7 7 7 9 11 6 2 4 7 7 8 8 8 8 8 8
13 14 14 14 14 13 13 12 11 10 10 9 8 7 6 6 6 8 8 8 8 8 8 7 7 7 7 6 6 7 8 10 6 4 5 7 8 8 8 8 7 7 7
11 11 12 13 13 12 12 11 9 8 7 6 5 4 3 2 4 6 8 8 8 7 6 6 5 5 5 5 6 7 8 9 7 3 5 7 9 9 8 8 7 7 7
8 8 9 11 12 12 11 9 8 6 5 3 2 0 1 0 2 4 7 6 6 5 4 4 4 4 5 5 6 7 8 8 4 4 6 8 10 9 8 7 7 7 7
7 7 6 6 8 9 10 9 8 6 4 3 3 2 2 1 2 4 6 3 1 2 3 4 5 7 7 7 8 8 8 5 0 6 8 9 9 8 8 7 7 7 7
6 6 6 6 6 6 7 7 5 4 4 2 3 4 3 4 4 5 4 1 2 3 4 7 8 9 8 6 6 7 5 3 3 7 9 10 9 9 8 8 8 8 7
6 5 5 6 7 6 5 5 4 4 4 6 7 8 8 7 4 4 1 1 3 1 4 5 6 5 3 1 2 1 1 3 6 8 9 10 9 8 8 8 8 8 8
6 5 5 6 7 7 5 3 4 4 4 5 7 8 7 4 4 4 4 5 5 4 4 5 4 5 6 6 5 3 3 3 6 7 9 9 8 7 7 7 7 7 7
6 5 6 7 7 6 4 3 5 4 4 5 6 8 8 4 3 3 3 5 6 6 4 4 4 4 4 5 6 6 5 5 6 7 7 8 7 7 7 7 7 7 7
6 6 6 6 5 4 4 3 3 4 6 7 6 7 8 6 4 3 3 3 4 5 5 4 4 3 3 3 4 5 5 5 5 5 6 7 7 7 7 7 7 7 7
7 7 5 5 5 6 5 4 5 6 7 5 6 9 8 8 7 6 4 3 4 7 7 6 5 4 4 4 4 4 4 5 4 5 5 6 7 7 7 7 7 7 7
7 7 4 5 7 6 5 5 4 6 6 6 8 10 11 11 10 6 4 3 6 7 5 3 5 4 4 4 3 3 3 3 4 4 4 5 6 6 7 7 7 8 8
7 6 4 4 6 5 4 4 4 5 5 7 9 9 11 12 11 7 4 5 7 5 4 6 5 4 4 3 2 3 3 3 3 6 5 6 6 6 6 6 7 8 7
6 7 6 4 5 4 3 4 3 4 4 6 7 8 10 11 11 8 4 7 7 4 5 5 5 5 4 4 4 3 2 3 4 4 4 5 6 6 5 5 5 6 7
5 7 6 4 4 4 3 3 3 3 3 4 5 8 8 9 10 7 5 5 5 5 6 6 5 5 4 4 3 3 3 4 4 3 3 4 4 6 6 6 6 6 6
5 5 5 5 5 5 3 2 2 3 4 3 4 6 9 10 10 8 5 4 4 5 7 6 5 5 4 5 3 2 2 3 4 4 3 4 5 5 5 7 7 7 7
4 5 5 5 6 5 4 3 3 3 2 3 3 3 6 9 9 9 8 5 5 5 5 5 6 6 5 5 5 4 3 2 3 3 5 5 5 4 4 5 7 8 8
5 4 5 4 5 5 5 3 3 3 3 3 3 3 4 7 7 8 8 7 5 5 5 6 7 5 5 5 4 4 3 2 1 2 4 4 5 5 5 5 6 8 10
6 4 4 5 5 5 5 3 3 3 3 3 3 4 4 4 6 7 7 6 5 4 5 5 6 6 5 5 4 4 4 4 4 3 2 4 4 4 4 4 5 6 8
6 5 5 6 6 4 4 4 4 4 4 4 3 2 2 2 2 4 6 6 5 4 4 4 4 5 5 6 5 5 4 4 4 3 3 3 3 2 3 3 4 5 7
Wind_Direction
91 88 87 84 83 85 86 83 81 79 78 77 75 73 71 69 67 65 61 60 57 54 52 50 47 45 44 42 39 38 37 35 31 31 35 40 43 41 40 35 30 42 45
98 94 89 86 85 85 84 83 81 78 79 77 75 73 70 68 66 64 62 60 57 53 50 47 45 44 43 40 34 31 28 19 11 6 13 32 45 45 46 43 38 38 39
95 95 89 86 85 83 83 82 81 80 79 77 75 72 70 67 65 63 61 57 54 50 47 45 43 40 36 34 28 22 16 2 350 340 337 19 58 55 52 44 37 34 35
94 90 89 87 85 84 84 83 82 79 77 76 74 71 69 65 62 59 57 54 50 47 42 39 38 35 31 28 21 11 5 351 343 343 13 40 55 60 52 42 34 32 34
93 92 91 89 86 85 83 81 79 77 75 73 71 67 63 59 55 53 51 49 47 42 37 35 33 30 28 23 16 3 353 344 340 352 22 48 62 57 49 41 34 34 37
97 96 94 92 90 87 84 82 78 75 72 70 67 63 58 54 51 49 45 42 40 38 34 32 30 28 24 18 10 358 346 337 336 5 36 61 67 59 51 42 38 37 36
105 104 102 98 94 90 86 82 77 73 70 65 62 59 56 54 52 48 44 40 36 34 33 31 25 23 18 11 3 352 339 330 318 1 68 75 71 63 51 43 40 37 35
112 112 112 108 102 95 89 84 79 74 70 66 62 58 55 57 56 51 46 41 35 31 29 26 21 15 10 3 351 339 332 332 346 21 72 78 71 63 52 46 42 40 40
111 118 123 125 116 106 99 93 88 84 81 77 71 63 53 60 68 67 59 44 37 30 24 16 7 358 352 342 329 322 321 326 328 348 63 70 72 61 52 48 44 43 48
113 119 126 132 133 130 123 117 116 111 107 111 108 22 300 233 121 95 74 56 36 22 11 353 333 319 311 303 298 300 303 306 304 53 75 74 68 59 54 52 49 56 57
114 120 120 119 118 125 130 129 147 145 147 166 199 258 274 242 142 110 82 84 33 343 321 303 295 290 286 279 272 275 285 281 356 77 73 74 68 61 59 57 57 60 59
119 125 132 127 118 104 92 115 130 110 125 97 58 59 33 48 46 73 117 193 244 277 293 280 281 282 268 258 260 260 274 297 77 87 79 76 71 66 63 60 61 61 61
104 97 111 113 108 107 89 87 79 81 79 50 32 52 35 24 41 62 123 250 266 327 330 314 288 292 309 281 275 224 11 24 70 79 86 80 74 71 69 65 61 62 64
98 94 85 92 91 84 79 88 76 58 59 48 23 41 42 19 20 19 47 3 15 23 353 343 345 1 8 9 8 35 48 50 78 94 96 87 77 73 71 69 63 62 64
107 90 72 70 79 86 73 50 77 57 46 62 28 39 44 29 18 8 49 20 19 9 3 348 3 3 11 13 17 28 27 46 72 94 103 102 92 83 72 71 67 65 65
110 93 77 75 78 86 89 75 64 77 69 52 20 37 49 37 26 18 37 28 8 4 3 1 10 356 18 27 22 26 22 42 55 86 110 111 98 91 82 73 70 71 68
113 101 89 87 73 61 55 53 69 58 62 53 25 16 42 42 36 28 18 20 5 10 17 11 10 6 27 29 29 34 34 34 37 66 86 111 111 99 92 83 77 75 72
109 102 95 90 84 70 58 43 58 54 53 51 36 16 23 35 38 31 13 2 19 17 7 11 18 10 21 24 12 25 41 33 30 44 68 97 109 109 105 95 87 78 73
109 113 103 80 92 90 95 83 58 66 58 55 45 24 21 24 32 32 11 7 24 22 6 16 21 10 4 2 15 48 34 40 30 39 36 61 71 83 98 100 94 84 76
109 107 99 82 86 94 74 81 66 47 54 59 53 35 27 25 24 23 31 19 21 22 14 16 14 13 358 355 16 37 47 62 55 42 29 43 53 57 65 88 95 85 74
115 112 117 114 96 85 61 67 74 69 64 52 53 36 38 33 21 28 31 25 28 27 23 22 12 9 2 2 16 14 26 54 59 64 45 36 46 51 49 64 75 81 81
115 113 118 107 96 92 83 83 86 84 89 83 57 38 37 40 22 27 35 33 37 30 26 23 21 10 1 18 23 19 17 15 12 44 49 46 50 42 37 56 55 71 77
126 127 120 125 120 113 105 80 71 68 68 81 79 60 42 46 30 21 25 32 35 36 28 25 27 23 12 12 33 44 44 13 338 6 32 44 39 38 31 42 52 60 69
140 130 126 117 108 108 106 83 99 97 84 75 81 89 72 53 43 27 27 33 39 35 29 29 31 23 29 14 7 23 41 50 21 356 6 25 33 43 35 34 40 50 68
142 134 119 105 91 84 91 77 62 72 86 79 75 71 73 58 50 38 33 37 38 35 31 37 36 33 32 26 16 13 12 15 20 44 7 4 18 29 27 30 44 45 60
129 121 106 97 91 89 103 108 93 88 86 85 75 71 87 84 58 50 48 42 37 33 33 32 43 45 38 33 27 25 26 26 10 18 16 10 13 357 22 37 49 47 57
Height
1525 1525 1526 1526 1527 1527 1528 1528 1528 1529 1529 1530 1530 1530 1531 1531 1531 1531 1531 1531 1531 1531 1531 1532 1532 1532 1532 1531 1532 1532 1532 1532 1532 1532 1532 1532 1532 1532 1532 1531 1531 1531 1531
1526 1526 1527 1527 1528 1528 1529 1530 1530 1530 1531 1531 1531 1532 1532 1532 1532 1532 1532 1532 1532 1532 1532 1532 1532 1532 1532 1532 1532 1532 1532 1532 1533 1533 1533 1533 1533 1533 1532 1532 1532 1531 1531
1527 1528 1528 1529 1529 1530 1530 1531 1531 1532 1532 1532 1532 1533 1533 1533 1533 1533 1533 1532 1532 1532 1532 1532 1532 1532 1532 1532 1532 1532 1533 1533 1533 1533 1534 1534 1533 1533 1533 1532 1532 1531 1531
1529 1529 1529 1530 1531 1531 1532 1532 1533 1533 1533 1533 1533 1534 1534 1533 1533 1533 1533 1533 1533 1533 1533 1532 1532 1532 1532 1532 1532 1533 1533 1533 1533 1534 1534 1535 1534 1533 1533 1532 1532 1532 1531
1531 1531 1531 1532 1532 1533 1533 1534 1534 1534 1534 1535 1535 1535 1535 1534 1534 1534 1534 1534 1533 1533 1533 1533 1533 1532 1532 1533 1533 1533 1533 1533 1534 1534 1534 1535 1534 1534 1533 1533 1532 1532 1531
1532 1533 1533 1534 1534 1534 1535 1535 1536 1536 1536 1536 1536 1536 1536 1535 1535 1535 1535 1534 1534 1534 1533 1533 1533 1533 1533 1533 1533 1533 1533 1533 1534 1534 1535 1535 1535 1534 1533 1533 1532 1532 1531
1534 1535 1535 1536 1536 1536 1537 1537 1537 1537 1537 1537 1537 1537 1537 1536 1536 1536 1535 1535 1535 1534 1534 1533 1533 1533 1533 1533 1533 1533 1533 1534 1534 1535 1535 1535 1535 1534 1534 1533 1532 1532 1532
1536 1537 1537 1538 1538 1539 1539 1539 1539 1538 1538 1538 1538 1538 1538 1538 1537 1537 1536 1536 1535 1535 1534 1534 1534 1534 1534 1533 1533 1533 1533 1534 1534 1535 1535 1535 1535 1534 1534 1533 1532 1532 1532
1539 1539 1539 1540 1540 1541 1541 1541 1540 1540 1540 1540 1540 1539 1539 1539 1538 1538 1537 1537 1536 1536 1535 1535 1534 1534 1534 1534 1534 1534 1534 1534 1535 1535 1535 1535 1535 1534 1534 1533 1533 1532 1532
1541 1542 1542 1542 1542 1542 1542 1542 1542 1542 1541 1541 1541 1541 1541 1540 1540 1539 1539 1538 1537 1537 1536 1535 1535 1535 1535 1535 1534 1534 1535 1535 1535 1535 1535 1535 1535 1534 1534 1533 1532 1532 1532
1543 1544 1544 1545 1545 1545 1544 1544 1544 1544 1543 1543 1543 1543 1542 1542 1542 1542 1541 1540 1539 1538 1537 1536 1536 1536 1535 1535 1535 1535 1535 1535 1536 1536 1536 1536 1535 1535 1534 1533 1533 1533 1533
1545 1546 1546 1546 1547 1547 1547 1546 1546 1546 1545 1545 1545 1544 1544 1544 1544 1543 1542 1541 1540 1539 1538 1538 1537 1536 1536 1536 1536 1536 1536 1536 1536 1536 1536 1536 1535 1535 1534 1534 1533 1533 1533
1546 1547 1548 1548 1549 1548 1548 1548 1548 1548 1547 1547 1547 1546 1545 1545 1545 1544 1543 1542 1542 1541 1539 1539 1538 1538 1537 1537 1537 1537 1537 1537 1537 1536 1536 1536 1536 1535 1535 1534 1534 1534 1534
1548 1549 1550 1550 1550 1550 1550 1550 1549 1549 1549 1548 1548 1547 1546 1546 1546 1545 1545 1544 1543 1542 1541 1540 1539 1539 1538 1538 1538 1538 1538 1538 1538 1537 1537 1537 1536 1536 1535 1535 1535 1535 1535
1550 1550 1551 1551 1551 1551 1551 1551 1551 1550 1550 1550 1549 1549 1548 1547 1547 1546 1546 1545 1544 1543 1542 1541 1540 1540 1539 1538 1538 1538 1538 1538 1538 1538 1538 1537 1537 1536 1536 1536 1536 1535 1535
1551 1552 1552 1553 1553 1553 1553 1552 1552 1552 1551 1551 1550 1550 1549 1549 1548 1547 1546 1546 1545 1544 1543 1542 1541 1541 1540 1540 1539 1539 1539 1539 1539 1539 1539 1538 1538 1538 1537 1537 1537 1537 1537
1552 1553 1553 1554 1554 1554 1554 1554 1554 1553 1553 1552 1551 1551 1551 1550 1549 1548 1548 1547 1546 1545 1544 1543 1542 1542 1541 1541 1540 1540 1540 1540 1540 1540 1540 1539 1539 1539 1539 1538 1538 1538 1538
1553 1553 1555 1555 1555 1555 1555 1555 1555 1554 1554 1553 1553 1552 1552 1551 1550 1549 1549 1548 1547 1546 1545 1544 1543 1542 1542 1542 1541 1542 1542 1542 1541 1541 1541 1541 1540 1540 1540 1540 1539 1539 1539
1553 1554 1555 1556 1556 1556 1556 1556 1556 1555 1555 1554 1553 1553 1552 1552 1551 1550 1549 1549 1548 1547 1546 1545 1544 1543 1543 1543 1543 1543 1543 1543 1543 1543 1542 1542 1542 1542 1541 1541 1541 1540 1540
1554 1555 1556 1556 1557 1557 1557 1557 1556 1556 1556 1555 1554 1554 1553 1553 1552 1551 1550 1549 1548 1547 1546 1546 1545 1545 1544 1544 1544 1544 1544 1544 1544 1543 1543 1543 1543 1543 1543 1542 1542 1541 1541
1555 1555 1556 1557 1557 1557 1557 1557 1557 1557 1557 1556 1555 1555 1555 1554 1553 1552 1551 1550 1549 1548 1548 1547 1546 1546 1545 1545 1545 1545 1545 1545 1545 1545 1545 1545 1545 1544 1544 1544 1543 1543 1542
1554 1555 1556 1557 1557 1557 1557 1557 1558 1558 1557 1557 1556 1556 1556 1555 1554 1553 1552 1551 1550 1549 1549 1548 1547 1547 1547 1546 1546 1546 1546 1548 1547 1547 1546 1546 1546 1545 1545 1545 1544 1544 1543
1554 1555 1556 1557 1557 1557 1557 1558 1558 1558 1558 1557 1557 1556 1556 1555 1554 1554 1553 1552 1552 1550 1550 1549 1549 1548 1548 1548 1548 1548 1548 1548 1548 1548 1548 1547 1547 1547 1546 1546 1546 1545 1544
1554 1555 1556 1557 1557 1557 1557 1558 1558 1558 1558 1558 1558 1557 1557 1556 1555 1555 1554 1553 1552 1552 1551 1551 1550 1550 1549 1549 1549 1549 1550 1550 1549 1549 1549 1548 1548 1548 1547 1547 1547 1546 1545
1552 1554 1555 1556 1556 1557 1557 1557 1558 1558 1558 1558 1558 1558 1557 1557 1556 1555 1555 1554 1553 1553 1552 1552 1551 1551 1550 1550 1550 1550 1550 1550 1550 1550 1549 1549 1549 1549 1548 1548 1547 1547 1546
1551 1552 1553 1554 1555 1556 1557 1557 1557 1557 1558 1558 1558 1558 1557 1557 1557 1556 1556 1555 1554 1554 1553 1553 1553 1552 1552 1552 1551 1551 1551 1551 1550 1550 1550 1550 1549 1549 1549 1549 1548 1548 1547